KPWTKCLM

Guest
Details From KPWT - Bremerton National
To KCLM - William R Fairchild Intl
Flight Number -
Tags Routegen
Created
Modified
Stats Distance 49 nm / 90 km
Max Altitude 0 ft / 0 m
Waypoints 2
Social Downloads 4
Likes 0
Share VATSIM

Download

Looking for another format? Having issues loading an existing format? Contact us
Advertisement - Login to hide

Notes

None

Route

KPWT KCLM

ID Type Via Altitude (ft/m) Position (lat/lon) Dist (leg/tot) Name
O KPWT APT - 0 / 0 47.48333 / -122.77138 - / 0 nm
O KCLM APT - 0 / 0 48.12104 / -123.51152 48 / 48 nm

Altitude Profile

Advertisement - Login to hide

KPWT

Details ICAO KPWT (PWT)
Name Bremerton National
Region United States
Timezone America/Los_Angeles (UTC-7.0)
Stats Elevation 444 ft / 135 m (AMSL)
Location 47.490200° -122.765000°
Runways 1
Magnetic Variation 15.525° E

METAR

KPWT 200505Z AUTO 06003KT 10SM SCT009 OVC049 14/13 A3007 RMK AO2

Decode

TAF

TAF AMD KPWT 200211Z 2002/2024 00000KT P6SM SCT020 OVC040 TEMPO 2002/2006 -RA BKN020 OVC040 FM200800 00000KT P6SM OVC030 FM201100 VRB03KT P6SM OVC015 FM202200 17003KT P6SM OVC025

Decode

Departure Runways

ID Width Length Bearing (true/mag) Surface Threshold Overrun Markings Lighting
01 151 ft / 46 m 5,997 ft / 1,828 m 32.69° / 17.16° ASPHALT 0 ft / 0 m 0 ft / 0 m APP EDGE THRESHOLD
19 151 ft / 46 m 5,997 ft / 1,828 m 212.70° / 197.17° ASPHALT 0 ft / 0 m 1,243 ft / 379 m PREC-APP EDGE THRESHOLD MALSR

KCLM

Details ICAO KCLM (CLM)
Name WILLIAM R FAIRCHILD INTL
Region United States
Timezone America/Los_Angeles (UTC-7.0)
Stats Elevation 291 ft / 89 m (AMSL)
Location 48.120800° -123.500000°
Runways 2
Magnetic Variation 15.792° E

METAR

KCLM 200453Z AUTO 25003KT 10SM BKN018 14/13 A3007 RMK AO2 SLP183 T01390133

Decode

TAF

TAF AMD KCLM 200301Z 2003/2024 21003KT P6SM SCT018 BKN050 TEMPO 2003/2006 OVC018 FM201100 26005KT P6SM OVC030 FM201200 26004KT P6SM OVC015 FM202200 35005KT P6SM OVC025

Decode

Destination Runways

ID Width Length Bearing (true/mag) Surface Threshold Overrun Markings Lighting
08 151 ft / 46 m 6,353 ft / 1,936 m 104.61° / 88.82° ASPHALT 0 ft / 0 m 0 ft / 0 m PREC-APP EDGE THRESHOLD MALSR
13 49 ft / 15 m 3,244 ft / 989 m 147.64° / 131.84° ASPHALT 0 ft / 0 m 0 ft / 0 m APP EDGE THRESHOLD
26 151 ft / 46 m 6,353 ft / 1,936 m 284.63° / 268.84° ASPHALT 1,355 ft / 413 m 0 ft / 0 m APP EDGE THRESHOLD REIL-OMNI
31 49 ft / 15 m 3,244 ft / 989 m 327.64° / 311.85° ASPHALT 0 ft / 0 m 0 ft / 0 m APP EDGE THRESHOLD

Approach Navaids

Runway Type Ident Frequency Range Bearing (true/mag) Slope Elevation
08 LOC-ILS ICLM 108.90 MHz 18 nm / 33 km 104.64° / 88.85 ° - 291 ft / 89 m (AMSL)
08 GS ICLM 108.90 MHz 10 nm / 19 km 105.25° / 89.45 ° 3.00° 281 ft / 86 m (AMSL)
08 OM OM - - 104.62° / 88.83 ° - 1,069 ft / 326 m (AMSL)
08 MM MM - - 104.62° / 88.83 ° - 291 ft / 89 m (AMSL)

Popular Alternatives